User: anonymous   Login
Location: Quedlinburg
(51.7921°N, 11.1414°E)
Time: 07:33:52
(UTC+01:00)
Language:

ITAMSAT 1 - Orbit

View from above orbital plane
View from above orbital plane
View from above satellite
View from above satellite

Ground track
Ground track

The orbit is defined by the following mean orbital elements,

1 22826U          26069.76454889 +.00000000 +00000-0 +71019-4 0 00009
2 22826  98.6927 137.0831 0009130  20.1220 340.0321 14.31337572    05
Epoch (UTC): 10 March 2026 18:20:57
Eccentricity: 0.0009130
inclination: 98.6927°
perigee height: 781 km
apogee height: 794 km
right ascension of ascending node: 137.0831°
argument of perigee: 20.1220°
revolutions per day: 14.31337572
mean anomaly at epoch: 340.0321°

The dashed part of the orbit path shows where the satellite is in the earth's shadow,  

DLR